GOES 1 [-] 1 08366U 75100A 12033.80462357 -.00000233 00000-0 10000-3 0 8970 2 08366 14.0293 339.5320 0001341 7.5810 352.4641 1.00289701132581 GOES 2 [-] 1 10061U 77048A 12030.26382522 -.00000302 00000-0 10000-3 0 496 2 10061 14.6843 348.0767 0013941 283.1028 76.7669 0.99398656 71311 GOES 3 [P] 1 10953U 78062A 12033.89992262 -.00000108 00000-0 10000-3 0 7124 2 10953 14.5624 351.7074 0005120 42.2669 317.8066 1.00265460 76307 GOES 4 [-] 1 11964U 80074A 12034.16061319 -.00000247 00000-0 10000-3 0 2741 2 11964 15.0718 355.3646 0035565 324.1280 35.6656 0.99233733 75564 GOES 5 [-] 1 12472U 81049A 12033.84025887 -.00000280 00000-0 10000-3 0 1929 2 12472 14.4731 5.6194 0001921 48.2280 311.8260 1.00249687 70342 GOES 6 [-] 1 14050U 83041A 12033.87031664 -.00000264 00000-0 10000-3 0 1988 2 14050 14.3272 10.5480 0004003 32.7397 327.3227 1.00280678163443 GOES 7 [-] 1 17561U 87022A 12034.23126427 .00000095 00000-0 10000-3 0 3381 2 17561 13.6909 27.2542 0005463 55.8755 324.8926 1.00307664 74557 GOES 8 [-] 1 23051U 94022A 12034.01100317 -.00000085 00000-0 10000-3 0 68 2 23051 8.0245 60.7749 0005923 216.7208 143.3092 0.98904076 72228 GOES 9 [P] 1 23581U 95025A 12034.29814196 -.00000183 00000-0 10000-3 0 2822 2 23581 7.5689 58.9558 0005736 339.5321 20.5230 0.98802693 60927 GOES 10 [-] 1 24786U 97019A 12033.44555815 -.00000266 00000-0 10000-3 0 2159 2 24786 5.7917 62.0830 0007221 121.2151 238.9275 0.99101790 54047 GOES 11 [+] 1 26352U 00022A 12028.55393675 .00000012 00000-0 00000+0 0 6740 2 26352 0.9737 138.5801 0001710 342.5316 238.8776 0.99042364 42986 GOES 12 [B] 1 26871U 01031A 12034.17678125 -.00000282 00000-0 10000-3 0 4370 2 26871 1.9556 74.4795 0001621 278.9587 142.6729 1.00285113 38647 GOES 13 [+] 1 29155U 06018A 12034.45241019 -.00000248 00000-0 10000-3 0 9352 2 29155 0.4085 80.7712 0001810 317.4116 183.1631 1.00270426 20893 GOES 14 [S] 1 35491U 09033A 12034.30085697 -.00000083 00000-0 00000+0 0 3158 2 35491 0.1000 248.3774 0003205 191.8771 55.4519 1.00271812 9565 GOES 15 [S] 1 36411U 10008A 12033.13629844 .00000092 00000-0 00000+0 0 9237 2 36411 0.0404 257.0515 0000946 318.2374 190.6630 1.00261324 7053